Time,TemperatureF,DewpointF,PressureIn,WindDirection,WindDirectionDegrees,WindSpeedMPH,WindSpeedGustMPH,Humidity,HourlyPrecipIn,Conditions,Clouds,dailyrainin,SoftwareType,DateUTC
2013-05-03 00:04:00,31.6,11.2,30.32,South,185,0.0,0.0,42,0.00,,---,0.00,VWS V14.01,2013-05-03 06:04:00,
2013-05-03 00:09:00,31.5,11.0,30.32,South,185,0.0,0.0,42,0.00,,---,0.00,VWS V14.01,2013-05-03 06:09:00,
2013-05-03 00:14:00,31.5,11.0,30.32,South,185,0.0,0.0,42,0.00,,---,0.00,VWS V14.01,2013-05-03 06:14:00,
2013-05-03 00:19:00,31.6,11.7,30.32,South,190,2.2,2.2,43,0.00,,---,0.00,VWS V14.01,2013-05-03 06:19:00,
2013-05-03 00:24:00,32.2,12.2,30.32,SSW,193,0.0,0.0,43,0.00,,---,0.00,VWS V14.01,2013-05-03 06:24:00,
2013-05-03 00:29:00,32.4,12.9,30.32,SW,226,0.0,0.0,44,0.00,,---,0.00,VWS V14.01,2013-05-03 06:29:00,
2013-05-03 00:35:00,32.7,13.2,30.32,SW,233,3.6,3.6,44,0.00,,---,0.00,VWS V14.01,2013-05-03 06:35:00,
2013-05-03 00:40:00,32.9,13.4,30.32,SW,235,0.0,0.0,44,0.00,,---,0.00,VWS V14.01,2013-05-03 06:40:00,
2013-05-03 00:45:00,32.7,13.2,30.32,WSW,237,0.0,0.0,44,0.00,,---,0.00,VWS V14.01,2013-05-03 06:45:00,
2013-05-03 00:50:00,32.5,13.1,30.32,WSW,253,0.0,0.0,44,0.00,,---,0.00,VWS V14.01,2013-05-03 06:50:00,
2013-05-03 00:55:00,32.4,12.9,30.29,West,270,0.0,0.0,44,0.00,,---,0.00,VWS V14.01,2013-05-03 06:55:00,
2013-05-03 01:00:00,32.2,13.2,30.29,West,272,0.0,0.0,45,0.00,,---,0.00,VWS V14.01,2013-05-03 07:00:00,
2013-05-03 01:05:00,32.4,13.4,30.29,West,270,0.0,0.0,45,0.00,,---,0.00,VWS V14.01,2013-05-03 07:05:00,
2013-05-03 01:10:00,32.5,13.6,30.29,West,266,4.9,4.9,45,0.00,,---,0.00,VWS V14.01,2013-05-03 07:10:00,
2013-05-03 01:15:00,32.5,13.6,30.29,West,270,5.8,5.8,45,0.00,,---,0.00,VWS V14.01,2013-05-03 07:15:00,
2013-05-03 01:20:00,32.2,13.2,30.29,West,274,6.3,6.3,45,0.00,,---,0.00,VWS V14.01,2013-05-03 07:20:00,
2013-05-03 01:25:00,32.2,13.7,30.29,WNW,285,7.2,7.2,46,0.00,,---,0.00,VWS V14.01,2013-05-03 07:25:00,
2013-05-03 01:30:00,32.2,13.7,30.29,West,279,8.1,8.1,46,0.00,,---,0.00,VWS V14.01,2013-05-03 07:30:00,
2013-05-03 01:35:00,32.4,14.4,30.29,West,266,7.6,7.6,47,0.00,,---,0.00,VWS V14.01,2013-05-03 07:35:00,
2013-05-03 01:40:00,32.5,14.6,30.29,West,271,7.6,8.1,47,0.00,,---,0.00,VWS V14.01,2013-05-03 07:40:00,
2013-05-03 01:45:00,32.7,15.2,30.29,West,273,7.2,7.6,48,0.00,,---,0.00,VWS V14.01,2013-05-03 07:45:00,
2013-05-03 01:50:00,33.3,15.7,30.29,West,270,5.4,6.3,48,0.00,,---,0.00,VWS V14.01,2013-05-03 07:50:00,
2013-05-03 01:55:00,33.3,15.2,30.27,West,276,6.3,6.3,47,0.00,,---,0.00,VWS V14.01,2013-05-03 07:55:00,
2013-05-03 02:00:00,33.1,15.1,30.27,West,263,3.6,3.6,47,0.00,,---,0.00,VWS V14.01,2013-05-03 08:00:00,
2013-05-03 02:05:00,32.5,14.1,30.27,West,264,3.6,3.6,46,0.00,,---,0.00,VWS V14.01,2013-05-03 08:05:00,
2013-05-03 02:10:00,32.5,14.1,30.27,West,263,2.7,2.7,46,0.00,,---,0.00,VWS V14.01,2013-05-03 08:10:00,
2013-05-03 02:15:00,31.5,13.6,30.27,West,261,3.6,3.6,47,0.00,,---,0.00,VWS V14.01,2013-05-03 08:15:00,
2013-05-03 02:20:00,31.3,13.4,30.27,WSW,255,4.0,4.5,47,0.00,,---,0.00,VWS V14.01,2013-05-03 08:20:00,
2013-05-03 02:25:00,31.1,13.2,30.27,WSW,255,4.5,4.5,47,0.00,,---,0.00,VWS V14.01,2013-05-03 08:25:00,
2013-05-03 02:30:00,30.6,12.7,30.27,West,259,3.6,4.0,47,0.00,,---,0.00,VWS V14.01,2013-05-03 08:30:00,
2013-05-03 02:35:00,30.4,12.6,30.27,West,260,3.6,3.6,47,0.00,,---,0.00,VWS V14.01,2013-05-03 08:35:00,
2013-05-03 02:40:00,30.2,12.9,30.27,West,261,4.5,4.5,48,0.00,,---,0.00,VWS V14.01,2013-05-03 08:40:00,
2013-05-03 02:45:00,30.4,13.1,30.27,West,265,5.8,5.8,48,0.00,,---,0.00,VWS V14.01,2013-05-03 08:45:00,
2013-05-03 02:50:00,30.2,12.9,30.27,West,272,5.4,5.4,48,0.00,,---,0.00,VWS V14.01,2013-05-03 08:50:00,
2013-05-03 02:55:00,30.2,12.9,30.27,WNW,284,6.7,6.7,48,0.00,,---,0.00,VWS V14.01,2013-05-03 08:55:00,
2013-05-03 03:00:00,30.2,13.4,30.27,WNW,284,8.3,8.3,49,0.00,,---,0.00,VWS V14.01,2013-05-03 09:00:00,
2013-05-03 03:05:00,30.4,13.5,30.27,WNW,286,8.1,8.1,49,0.00,,---,0.00,VWS V14.01,2013-05-03 09:05:00,
2013-05-03 03:10:00,30.4,13.5,30.27,WNW,287,8.3,8.3,49,0.00,,---,0.00,VWS V14.01,2013-05-03 09:10:00,
2013-05-03 03:15:00,30.4,13.5,30.27,WNW,291,8.1,8.1,49,0.00,,---,0.00,VWS V14.01,2013-05-03 09:15:00,
2013-05-03 03:20:00,30.6,14.1,30.27,WNW,290,7.6,8.3,50,0.00,,---,0.00,VWS V14.01,2013-05-03 09:20:00,
2013-05-03 03:25:00,31.1,14.6,30.27,WNW,291,8.3,8.3,50,0.00,,---,0.00,VWS V14.01,2013-05-03 09:25:00,
2013-05-03 03:30:00,31.1,14.6,30.27,WNW,292,8.3,8.3,50,0.00,,---,0.00,VWS V14.01,2013-05-03 09:30:00,
2013-05-03 03:35:00,31.3,15.3,30.24,WNW,292,8.7,8.7,51,0.00,,---,0.00,VWS V14.01,2013-05-03 09:35:00,
2013-05-03 03:40:00,31.5,15.4,30.24,WNW,295,8.1,8.1,51,0.00,,---,0.00,VWS V14.01,2013-05-03 09:40:00,
2013-05-03 03:45:00,31.3,15.3,30.24,WNW,295,8.3,8.3,51,0.00,,---,0.00,VWS V14.01,2013-05-03 09:45:00,
2013-05-03 03:50:00,31.1,15.1,30.24,WNW,291,8.1,8.1,51,0.00,,---,0.00,VWS V14.01,2013-05-03 09:50:00,
2013-05-03 03:55:00,31.1,15.1,30.24,WNW,293,8.1,8.1,51,0.00,,---,0.00,VWS V14.01,2013-05-03 09:55:00,
2013-05-03 04:00:00,30.9,14.9,30.24,WNW,295,8.3,8.3,51,0.00,,---,0.00,VWS V14.01,2013-05-03 10:00:00,
2013-05-03 04:05:00,30.7,15.2,30.24,WNW,300,8.1,8.3,52,0.00,,---,0.00,VWS V14.01,2013-05-03 10:05:00,
2013-05-03 04:10:00,30.7,15.2,30.24,WNW,300,8.1,8.3,52,0.00,,---,0.00,VWS V14.01,2013-05-03 10:10:00,
2013-05-03 04:15:00,31.1,15.5,30.24,WNW,296,8.1,8.1,52,0.00,,---,0.00,VWS V14.01,2013-05-03 10:15:00,
2013-05-03 04:20:00,31.1,15.5,30.24,WNW,299,6.3,7.6,52,0.00,,---,0.00,VWS V14.01,2013-05-03 10:20:00,
2013-05-03 04:25:00,31.3,15.7,30.24,WNW,302,6.3,6.3,52,0.00,,---,0.00,VWS V14.01,2013-05-03 10:25:00,
2013-05-03 04:30:00,31.5,15.9,30.24,NW,305,5.8,6.3,52,0.00,,---,0.00,VWS V14.01,2013-05-03 10:30:00,
2013-05-03 04:35:00,31.8,16.2,30.24,NW,316,6.3,6.3,52,0.00,,---,0.00,VWS V14.01,2013-05-03 10:35:00,
2013-05-03 04:40:00,31.5,15.9,30.24,NW,305,7.6,7.6,52,0.00,,---,0.00,VWS V14.01,2013-05-03 10:40:00,
2013-05-03 04:45:00,31.6,16.5,30.24,NW,320,5.8,6.3,53,0.00,,---,0.00,VWS V14.01,2013-05-03 10:45:00,
2013-05-03 04:50:00,31.6,16.0,30.24,NW,310,6.3,6.3,52,0.00,,---,0.00,VWS V14.01,2013-05-03 10:50:00,
2013-05-03 04:55:00,31.3,15.7,30.24,NW,317,5.8,5.8,52,0.00,,---,0.00,VWS V14.01,2013-05-03 10:55:00,
2013-05-03 05:00:00,31.1,15.5,30.24,NW,318,6.3,6.3,52,0.00,,---,0.00,VWS V14.01,2013-05-03 11:00:00,
2013-05-03 05:05:00,30.7,15.2,30.24,NW,311,6.3,6.3,52,0.00,,---,0.00,VWS V14.01,2013-05-03 11:05:00,
2013-05-03 05:10:00,30.7,15.2,30.24,NW,306,5.4,5.4,52,0.00,,---,0.00,VWS V14.01,2013-05-03 11:10:00,
2013-05-03 05:15:00,30.6,15.0,30.24,NW,311,6.3,6.3,52,0.00,,---,0.00,VWS V14.01,2013-05-03 11:15:00,
2013-05-03 05:20:00,30.4,14.9,30.24,WNW,302,7.6,7.6,52,0.00,,---,0.00,VWS V14.01,2013-05-03 11:20:00,
2013-05-03 05:25:00,30.6,15.0,30.21,WNW,300,7.2,7.2,52,0.00,,---,0.00,VWS V14.01,2013-05-03 11:25:00,
2013-05-03 05:30:00,30.9,15.4,30.21,WNW,303,7.6,7.6,52,0.00,,---,0.00,VWS V14.01,2013-05-03 11:30:00,
2013-05-03 05:35:00,31.1,15.5,30.21,NW,313,6.3,7.2,52,0.00,,---,0.00,VWS V14.01,2013-05-03 11:35:00,
2013-05-03 05:40:00,30.7,14.8,30.21,NW,306,7.6,7.6,51,0.00,,---,0.00,VWS V14.01,2013-05-03 11:40:00,
2013-05-03 05:45:00,30.7,14.8,30.21,NW,308,7.2,8.1,51,0.00,,---,0.00,VWS V14.01,2013-05-03 11:45:00,
2013-05-03 05:50:00,30.4,14.4,30.21,NW,314,7.6,7.6,51,0.00,,---,0.00,VWS V14.01,2013-05-03 11:50:00,
2013-05-03 05:55:00,30.6,14.6,30.21,NW,306,8.1,8.1,51,0.00,,---,0.00,VWS V14.01,2013-05-03 11:55:00,
2013-05-03 06:00:00,31.1,15.5,30.21,NW,304,8.3,8.3,52,0.00,,---,0.00,VWS V14.01,2013-05-03 12:00:00,
2013-05-03 06:05:00,31.8,16.2,30.21,NW,305,8.1,8.1,52,0.00,,---,0.00,VWS V14.01,2013-05-03 12:05:00,
2013-05-03 06:10:00,32.5,16.9,30.21,NW,307,7.6,8.1,52,0.00,,---,0.00,VWS V14.01,2013-05-03 12:10:00,
2013-05-03 06:15:00,32.9,16.8,30.21,NW,312,7.6,8.1,51,0.00,,---,0.00,VWS V14.01,2013-05-03 12:15:00,
2013-05-03 06:20:00,33.3,17.1,30.21,NW,312,6.3,6.7,51,0.00,,---,0.00,VWS V14.01,2013-05-03 12:20:00,
2013-05-03 06:25:00,33.8,17.1,30.21,NW,308,7.6,7.6,50,0.00,,---,0.00,VWS V14.01,2013-05-03 12:25:00,
2013-05-03 06:31:00,34.0,17.3,30.21,NW,309,7.6,7.6,50,0.00,,---,0.00,VWS V14.01,2013-05-03 12:31:00,
2013-05-03 06:36:00,34.5,17.8,30.21,NW,308,6.3,6.3,50,0.00,,---,0.00,VWS V14.01,2013-05-03 12:36:00,
2013-05-03 06:41:00,34.9,18.1,30.21,WNW,302,5.4,6.3,50,0.00,,---,0.00,VWS V14.01,2013-05-03 12:41:00,
2013-05-03 06:46:00,35.4,18.6,30.21,NW,304,5.4,5.8,50,0.00,,---,0.00,VWS V14.01,2013-05-03 12:46:00,
2013-05-03 06:51:00,36.7,18.9,30.21,NW,304,7.2,7.2,48,0.00,,---,0.00,VWS V14.01,2013-05-03 12:51:00,
2013-05-03 06:56:00,37.0,18.7,30.21,WNW,299,7.6,7.6,47,0.00,,---,0.00,VWS V14.01,2013-05-03 12:56:00,
2013-05-03 07:01:00,37.6,18.2,30.21,WNW,301,8.7,8.7,45,0.00,,---,0.00,VWS V14.01,2013-05-03 13:01:00,
2013-05-03 07:06:00,37.9,18.0,30.21,WNW,294,8.1,9.6,44,0.00,,---,0.00,VWS V14.01,2013-05-03 13:06:00,
2013-05-03 07:11:00,37.9,17.5,30.21,WNW,297,8.1,8.7,43,0.00,,---,0.00,VWS V14.01,2013-05-03 13:11:00,
2013-05-03 07:16:00,38.1,17.1,30.21,WNW,300,6.3,7.2,42,0.00,,---,0.00,VWS V14.01,2013-05-03 13:16:00,
2013-05-03 07:21:00,38.7,17.6,30.21,NW,309,3.6,3.6,42,0.00,,---,0.00,VWS V14.01,2013-05-03 13:21:00,
2013-05-03 07:26:00,39.4,18.2,30.21,NW,310,5.4,6.7,42,0.00,,---,0.00,VWS V14.01,2013-05-03 13:26:00,
2013-05-03 07:31:00,39.9,18.7,30.21,NW,311,0.0,0.0,42,0.00,,---,0.00,VWS V14.01,2013-05-03 13:31:00,
2013-05-03 07:36:00,40.5,18.6,30.21,NW,309,6.3,6.3,41,0.00,,---,0.00,VWS V14.01,2013-05-03 13:36:00,
2013-05-03 07:41:00,41.0,19.1,30.21,NW,315,3.6,5.8,41,0.00,,---,0.00,VWS V14.01,2013-05-03 13:41:00,
2013-05-03 07:46:00,41.4,19.5,30.21,NW,315,3.1,3.1,41,0.00,,---,0.00,VWS V14.01,2013-05-03 13:46:00,
2013-05-03 07:51:00,41.9,19.9,30.24,NW,310,3.6,3.6,41,0.00,,---,0.00,VWS V14.01,2013-05-03 13:51:00,
2013-05-03 07:56:00,42.3,20.3,30.24,WNW,296,7.6,7.6,41,0.00,,---,0.00,VWS V14.01,2013-05-03 13:56:00,
2013-05-03 08:01:00,42.4,19.2,30.24,WNW,292,8.3,8.3,39,0.00,,---,0.00,VWS V14.01,2013-05-03 14:01:00,
2013-05-03 08:06:00,42.4,19.2,30.24,WNW,290,6.3,6.3,39,0.00,,---,0.00,VWS V14.01,2013-05-03 14:06:00,
2013-05-03 08:11:00,42.6,19.4,30.24,WNW,291,7.6,8.3,39,0.00,,---,0.00,VWS V14.01,2013-05-03 14:11:00,
2013-05-03 08:16:00,43.0,19.1,30.24,WNW,297,8.7,8.7,38,0.00,,---,0.00,VWS V14.01,2013-05-03 14:16:00,
2013-05-03 08:22:00,43.5,19.6,30.24,West,275,8.1,10.5,38,0.00,,---,0.00,VWS V14.01,2013-05-03 14:22:00,
2013-05-03 08:27:00,43.7,18.5,30.24,West,279,8.1,8.7,36,0.00,,---,0.00,VWS V14.01,2013-05-03 14:27:00,
2013-05-03 08:32:00,44.1,18.2,30.24,WNW,292,9.6,9.6,35,0.00,,---,0.00,VWS V14.01,2013-05-03 14:32:00,
2013-05-03 08:37:00,44.2,17.7,30.24,WNW,301,7.6,7.6,34,0.00,,---,0.00,VWS V14.01,2013-05-03 14:37:00,
2013-05-03 08:42:00,45.0,16.9,30.24,West,275,6.3,6.3,32,0.00,,---,0.00,VWS V14.01,2013-05-03 14:42:00,
2013-05-03 08:47:00,45.3,17.2,30.24,WNW,290,7.2,8.1,32,0.00,,---,0.00,VWS V14.01,2013-05-03 14:47:00,
2013-05-03 08:52:00,45.9,17.7,30.24,NW,305,3.1,6.3,32,0.00,,---,0.00,VWS V14.01,2013-05-03 14:52:00,
2013-05-03 08:57:00,46.4,17.4,30.24,WNW,288,5.4,5.4,31,0.00,,---,0.00,VWS V14.01,2013-05-03 14:57:00,
2013-05-03 09:02:00,46.6,17.6,30.24,WNW,293,7.6,7.6,31,0.00,,---,0.00,VWS V14.01,2013-05-03 15:02:00,
2013-05-03 09:07:00,46.9,17.1,30.24,WNW,298,3.6,6.3,30,0.00,,---,0.00,VWS V14.01,2013-05-03 15:07:00,
2013-05-03 09:12:00,47.1,17.3,30.24,WNW,290,2.7,3.6,30,0.00,,---,0.00,VWS V14.01,2013-05-03 15:12:00,
2013-05-03 09:17:00,47.5,17.6,30.24,WNW,298,3.6,3.6,30,0.00,,---,0.00,VWS V14.01,2013-05-03 15:17:00,
2013-05-03 09:22:00,48.0,17.3,30.24,NW,314,6.3,8.1,29,0.00,,---,0.00,VWS V14.01,2013-05-03 15:22:00,
2013-05-03 09:27:00,48.2,16.6,30.24,North,0,7.6,8.1,28,0.00,,---,0.00,VWS V14.01,2013-05-03 15:27:00,
2013-05-03 09:32:00,48.6,17.0,30.24,NNW,348,6.3,6.3,28,0.00,,---,0.00,VWS V14.01,2013-05-03 15:32:00,
2013-05-03 09:37:00,48.7,17.1,30.27,NNE,18,0.0,3.1,28,0.00,,---,0.00,VWS V14.01,2013-05-03 15:37:00,
2013-05-03 09:42:00,48.9,17.3,30.27,NW,320,7.6,7.6,28,0.00,,---,0.00,VWS V14.01,2013-05-03 15:42:00,
2013-05-03 09:47:00,49.1,16.6,30.27,North,4,5.4,5.4,27,0.00,,---,0.00,VWS V14.01,2013-05-03 15:47:00,
2013-05-03 09:52:00,49.3,16.7,30.24,NW,324,3.1,3.1,27,0.00,,---,0.00,VWS V14.01,2013-05-03 15:52:00,
2013-05-03 09:57:00,49.5,16.9,30.24,North,4,10.1,10.1,27,0.00,,---,0.00,VWS V14.01,2013-05-03 15:57:00,
2013-05-03 10:02:00,49.8,17.2,30.24,NNE,17,8.1,8.1,27,0.00,,---,0.00,VWS V14.01,2013-05-03 16:02:00,
2013-05-03 10:07:00,50.2,16.6,30.24,NW,315,6.3,8.1,26,0.00,,---,0.00,VWS V14.01,2013-05-03 16:07:00,
2013-05-03 10:12:00,50.2,16.6,30.24,NNE,30,8.3,8.3,26,0.00,,---,0.00,VWS V14.01,2013-05-03 16:12:00,
2013-05-03 10:17:00,50.7,18.0,30.24,NNE,33,3.1,3.1,27,0.00,,---,0.00,VWS V14.01,2013-05-03 16:17:00,
2013-05-03 10:22:00,50.9,18.1,30.24,North,349,8.7,12.3,27,0.00,,---,0.00,VWS V14.01,2013-05-03 16:22:00,
2013-05-03 10:27:00,51.3,17.6,30.24,NNW,334,5.8,6.3,26,0.00,,---,0.00,VWS V14.01,2013-05-03 16:27:00,
2013-05-03 10:32:00,51.3,15.7,30.24,NNW,340,0.0,5.8,24,0.00,,---,0.00,VWS V14.01,2013-05-03 16:32:00,
2013-05-03 10:37:00,51.4,10.6,30.24,NNW,341,11.0,13.2,19,0.00,,---,0.00,VWS V14.01,2013-05-03 16:37:00,
2013-05-03 10:42:00,51.3,12.7,30.24,NNE,15,6.3,8.3,21,0.00,,---,0.00,VWS V14.01,2013-05-03 16:42:00,
2013-05-03 10:47:00,51.6,13.0,30.24,NNE,32,5.8,6.3,21,0.00,,---,0.00,VWS V14.01,2013-05-03 16:47:00,
2013-05-03 10:52:00,52.3,10.1,30.21,NE,52,10.1,12.8,18,0.00,,---,0.00,VWS V14.01,2013-05-03 16:52:00,
2013-05-03 10:57:00,52.0,9.8,30.21,North,4,12.8,12.8,18,0.00,,---,0.00,VWS V14.01,2013-05-03 16:57:00,
2013-05-03 11:02:00,51.8,9.7,30.21,East,85,7.6,7.6,18,0.00,,---,0.00,VWS V14.01,2013-05-03 17:02:00,
2013-05-03 11:07:00,52.0,9.8,30.21,ENE,69,6.3,6.3,18,0.00,,---,0.00,VWS V14.01,2013-05-03 17:07:00,
2013-05-03 11:12:00,52.3,10.1,30.21,NNE,18,13.2,13.2,18,0.00,,---,0.00,VWS V14.01,2013-05-03 17:12:00,
2013-05-03 11:17:00,52.9,10.6,30.21,NNE,17,10.1,11.9,18,0.00,,---,0.00,VWS V14.01,2013-05-03 17:17:00,
2013-05-03 11:22:00,52.7,10.4,30.21,NE,45,8.7,8.7,18,0.00,,---,0.00,VWS V14.01,2013-05-03 17:22:00,
2013-05-03 11:27:00,52.3,10.1,30.21,NE,44,8.7,10.1,18,0.00,,---,0.00,VWS V14.01,2013-05-03 17:27:00,
2013-05-03 11:32:00,52.3,7.5,30.21,NE,43,7.6,7.6,16,0.00,,---,0.00,VWS V14.01,2013-05-03 17:32:00,
2013-05-03 11:37:00,52.5,10.2,30.21,NNE,32,12.8,12.8,18,0.00,,---,0.00,VWS V14.01,2013-05-03 17:37:00,
2013-05-03 11:42:00,53.1,8.1,30.21,NNE,15,8.1,8.1,16,0.00,,---,0.00,VWS V14.01,2013-05-03 17:42:00,
2013-05-03 11:47:00,53.1,8.1,30.21,NNW,344,5.4,7.6,16,0.00,,---,0.00,VWS V14.01,2013-05-03 17:47:00,
2013-05-03 11:52:00,53.1,8.1,30.21,North,353,8.7,13.2,16,0.00,,---,0.00,VWS V14.01,2013-05-03 17:52:00,
2013-05-03 11:57:00,53.1,8.1,30.21,North,353,6.3,6.3,16,0.00,,---,0.00,VWS V14.01,2013-05-03 17:57:00,
2013-05-03 12:02:00,53.1,10.7,30.21,SSE,147,5.8,6.3,18,0.00,,---,0.00,VWS V14.01,2013-05-03 18:02:00,
2013-05-03 12:07:00,53.8,11.3,30.18,NNW,348,8.1,8.1,18,0.00,,---,0.00,VWS V14.01,2013-05-03 18:07:00,
2013-05-03 12:12:00,54.0,11.4,30.18,North,357,7.2,7.6,18,0.00,,---,0.00,VWS V14.01,2013-05-03 18:12:00,
2013-05-03 12:17:00,54.0,11.4,30.18,North,2,3.1,6.3,18,0.00,,---,0.00,VWS V14.01,2013-05-03 18:17:00,
2013-05-03 12:22:00,54.0,11.4,30.18,North,5,8.1,8.1,18,0.00,,---,0.00,VWS V14.01,2013-05-03 18:22:00,
2013-05-03 12:27:00,54.0,7.4,30.18,North,357,10.5,10.5,15,0.00,,---,0.00,VWS V14.01,2013-05-03 18:27:00,
2013-05-03 12:32:00,53.6,7.1,30.18,North,353,6.3,6.3,15,0.00,,---,0.00,VWS V14.01,2013-05-03 18:32:00,
2013-05-03 12:37:00,54.0,7.4,30.18,West,265,5.4,5.4,15,0.00,,---,0.00,VWS V14.01,2013-05-03 18:37:00,
2013-05-03 12:42:00,54.1,7.5,30.18,NNW,327,12.3,12.8,15,0.00,,---,0.00,VWS V14.01,2013-05-03 18:42:00,
2013-05-03 12:47:00,54.3,7.7,30.18,NNE,27,8.1,11.0,15,0.00,,---,0.00,VWS V14.01,2013-05-03 18:47:00,
2013-05-03 12:52:00,54.5,7.8,30.18,NNW,335,4.9,5.8,15,0.00,,---,0.00,VWS V14.01,2013-05-03 18:52:00,
2013-05-03 12:57:00,54.5,7.8,30.18,NNW,346,12.3,12.3,15,0.00,,---,0.00,VWS V14.01,2013-05-03 18:57:00,
2013-05-03 13:02:00,54.7,12.0,30.18,NW,310,4.9,12.8,18,0.00,,---,0.00,VWS V14.01,2013-05-03 19:02:00,
2013-05-03 13:07:00,54.9,8.1,30.18,NW,318,5.8,10.5,15,0.00,,---,0.00,VWS V14.01,2013-05-03 19:07:00,
2013-05-03 13:12:00,54.9,8.1,30.18,North,0,10.1,11.0,15,0.00,,---,0.00,VWS V14.01,2013-05-03 19:12:00,
2013-05-03 13:18:00,55.0,12.3,30.18,NNW,328,10.5,10.5,18,0.00,,---,0.00,VWS V14.01,2013-05-03 19:18:00,
2013-05-03 13:23:00,55.0,12.3,30.18,North,353,4.9,4.9,18,0.00,,---,0.00,VWS V14.01,2013-05-03 19:23:00,
2013-05-03 13:28:00,55.2,8.4,30.18,North,357,8.3,8.3,15,0.00,,---,0.00,VWS V14.01,2013-05-03 19:28:00,
2013-05-03 13:33:00,55.2,8.4,30.18,NW,320,10.5,10.5,15,0.00,,---,0.00,VWS V14.01,2013-05-03 19:33:00,
2013-05-03 13:38:00,55.4,8.5,30.18,West,264,6.3,11.0,15,0.00,,---,0.00,VWS V14.01,2013-05-03 19:38:00,
2013-05-03 13:43:00,55.6,11.5,30.18,NW,326,0.0,3.1,17,0.00,,---,0.00,VWS V14.01,2013-05-03 19:43:00,
2013-05-03 13:48:00,55.8,8.8,30.15,NNW,328,10.5,10.5,15,0.00,,---,0.00,VWS V14.01,2013-05-03 19:48:00,
2013-05-03 13:53:00,55.8,8.8,30.15,NNW,348,11.0,11.0,15,0.00,,---,0.00,VWS V14.01,2013-05-03 19:53:00,
2013-05-03 13:58:00,56.1,9.1,30.15,NW,308,12.8,12.8,15,0.00,,---,0.00,VWS V14.01,2013-05-03 19:58:00,
2013-05-03 14:03:00,56.3,9.3,30.15,WNW,300,7.6,8.7,15,0.00,,---,0.00,VWS V14.01,2013-05-03 20:03:00,
2013-05-03 14:08:00,56.3,9.3,30.15,NW,312,12.3,12.3,15,0.00,,---,0.00,VWS V14.01,2013-05-03 20:08:00,
2013-05-03 14:13:00,56.5,9.4,30.15,NW,310,12.3,12.3,15,0.00,,---,0.00,VWS V14.01,2013-05-03 20:13:00,
2013-05-03 14:18:00,56.5,9.4,30.15,WNW,295,12.3,12.3,15,0.00,,---,0.00,VWS V14.01,2013-05-03 20:18:00,
2013-05-03 14:23:00,56.5,9.4,30.15,West,276,8.1,10.1,15,0.00,,---,0.00,VWS V14.01,2013-05-03 20:23:00,
2013-05-03 14:28:00,56.5,9.4,30.15,WNW,297,7.6,10.5,15,0.00,,---,0.00,VWS V14.01,2013-05-03 20:28:00,
2013-05-03 14:33:00,56.3,9.3,30.15,NW,308,7.6,8.7,15,0.00,,---,0.00,VWS V14.01,2013-05-03 20:33:00,
2013-05-03 14:38:00,56.8,9.7,30.15,NNW,340,3.6,8.3,15,0.00,,---,0.00,VWS V14.01,2013-05-03 20:38:00,
2013-05-03 14:44:00,56.8,9.7,30.15,North,3,11.0,11.0,15,0.00,,---,0.00,VWS V14.01,2013-05-03 20:44:00,
2013-05-03 14:49:00,56.5,9.4,30.15,North,9,6.3,7.6,15,0.00,,---,0.00,VWS V14.01,2013-05-03 20:49:00,
2013-05-03 14:54:00,56.5,9.4,30.15,WNW,292,3.6,5.4,15,0.00,,---,0.00,VWS V14.01,2013-05-03 20:54:00,
2013-05-03 14:59:00,56.8,9.7,30.15,WSW,248,7.6,7.6,15,0.00,,---,0.00,VWS V14.01,2013-05-03 20:59:00,
2013-05-03 15:04:00,57.4,8.6,30.15,West,268,15.0,15.0,14,0.00,,---,0.00,VWS V14.01,2013-05-03 21:04:00,
2013-05-03 15:09:00,57.7,8.9,30.15,WNW,295,11.0,11.0,14,0.00,,---,0.00,VWS V14.01,2013-05-03 21:09:00,
2013-05-03 15:14:00,58.1,9.2,30.12,NNE,32,4.9,5.8,14,0.00,,---,0.00,VWS V14.01,2013-05-03 21:14:00,
2013-05-03 15:19:00,58.1,9.2,30.12,NW,312,8.7,8.7,14,0.00,,---,0.00,VWS V14.01,2013-05-03 21:19:00,
2013-05-03 15:24:00,58.1,9.2,30.12,NW,319,13.2,13.2,14,0.00,,---,0.00,VWS V14.01,2013-05-03 21:24:00,
2013-05-03 15:29:00,58.5,9.5,30.12,NW,323,8.7,12.8,14,0.00,,---,0.00,VWS V14.01,2013-05-03 21:29:00,
2013-05-03 15:34:00,57.9,9.0,30.12,North,9,10.1,12.8,14,0.00,,---,0.00,VWS V14.01,2013-05-03 21:34:00,
2013-05-03 15:39:00,58.1,9.2,30.12,North,0,13.2,13.2,14,0.00,,---,0.00,VWS V14.01,2013-05-03 21:39:00,
2013-05-03 15:44:00,57.9,9.0,30.12,North,357,12.8,13.6,14,0.00,,---,0.00,VWS V14.01,2013-05-03 21:44:00,
2013-05-03 15:49:00,57.9,9.0,30.12,NNW,348,14.1,16.3,14,0.00,,---,0.00,VWS V14.01,2013-05-03 21:49:00,
2013-05-03 15:55:00,57.9,9.0,30.12,NNW,346,13.2,13.2,14,0.00,,---,0.00,VWS V14.01,2013-05-03 21:55:00,
2013-05-03 16:00:00,58.1,9.2,30.09,NW,313,12.3,12.3,14,0.00,,---,0.00,VWS V14.01,2013-05-03 22:00:00,
2013-05-03 16:05:00,58.3,9.3,30.09,NNE,12,9.2,11.0,14,0.00,,---,0.00,VWS V14.01,2013-05-03 22:05:00,
2013-05-03 16:10:00,58.1,9.2,30.09,North,350,9.2,11.4,14,0.00,,---,0.00,VWS V14.01,2013-05-03 22:10:00,
2013-05-03 16:15:00,58.1,9.2,30.09,North,357,12.3,12.3,14,0.00,,---,0.00,VWS V14.01,2013-05-03 22:15:00,
2013-05-03 16:20:00,58.1,9.2,30.09,NNE,25,11.0,11.0,14,0.00,,---,0.00,VWS V14.01,2013-05-03 22:20:00,
2013-05-03 16:25:00,58.1,9.2,30.09,NNW,338,12.3,14.1,14,0.00,,---,0.00,VWS V14.01,2013-05-03 22:25:00,
2013-05-03 16:30:00,58.3,9.3,30.09,NNW,330,15.0,15.0,14,0.00,,---,0.00,VWS V14.01,2013-05-03 22:30:00,
2013-05-03 16:35:00,58.3,9.3,30.09,North,353,8.7,13.2,14,0.00,,---,0.00,VWS V14.01,2013-05-03 22:35:00,
2013-05-03 16:40:00,58.1,9.2,30.09,North,357,18.8,21.0,14,0.00,,---,0.00,VWS V14.01,2013-05-03 22:40:00,
2013-05-03 16:46:00,57.9,9.0,30.09,NNW,346,15.4,19.7,14,0.00,,---,0.00,VWS V14.01,2013-05-03 22:46:00,
2013-05-03 16:51:00,57.7,8.9,30.09,North,0,12.8,12.8,14,0.00,,---,0.00,VWS V14.01,2013-05-03 22:51:00,
2013-05-03 16:56:00,57.6,8.7,30.09,North,350,10.5,15.4,14,0.00,,---,0.00,VWS V14.01,2013-05-03 22:56:00,
2013-05-03 17:01:00,57.7,8.9,30.09,North,0,15.4,15.4,14,0.00,,---,0.00,VWS V14.01,2013-05-03 23:01:00,
2013-05-03 17:07:00,57.9,9.0,30.09,NNW,332,12.3,18.8,14,0.00,,---,0.00,VWS V14.01,2013-05-03 23:07:00,
2013-05-03 17:12:00,58.1,9.2,30.09,North,11,11.0,11.0,14,0.00,,---,0.00,VWS V14.01,2013-05-03 23:12:00,
2013-05-03 17:17:00,58.3,5.9,30.09,NNW,335,10.5,11.0,12,0.00,,---,0.00,VWS V14.01,2013-05-03 23:17:00,
2013-05-03 17:22:00,58.1,5.8,30.09,North,6,11.0,11.0,12,0.00,,---,0.00,VWS V14.01,2013-05-03 23:22:00,
2013-05-03 17:27:00,58.1,5.8,30.09,North,8,13.6,16.3,12,0.00,,---,0.00,VWS V14.01,2013-05-03 23:27:00,
2013-05-03 17:33:00,57.7,5.5,30.09,North,353,11.4,17.4,12,0.00,,---,0.00,VWS V14.01,2013-05-03 23:33:00,
2013-05-03 17:39:00,57.6,5.3,30.09,North,3,14.5,17.4,12,0.00,,---,0.00,VWS V14.01,2013-05-03 23:39:00,
2013-05-03 17:45:00,57.4,5.2,30.09,NNE,17,15.0,15.0,12,0.00,,---,0.00,VWS V14.01,2013-05-03 23:45:00,
2013-05-03 17:50:00,57.4,5.2,30.09,ENE,58,4.0,11.0,12,0.00,,---,0.00,VWS V14.01,2013-05-03 23:50:00,
2013-05-03 17:55:00,57.4,5.2,30.06,North,353,12.8,12.8,12,0.00,,---,0.00,VWS V14.01,2013-05-03 23:55:00,
2013-05-03 18:00:00,57.7,5.5,30.06,North,3,11.0,11.4,12,0.00,,---,0.00,VWS V14.01,2013-05-04 00:00:00,
2013-05-03 18:06:00,58.1,5.8,30.06,North,353,13.2,13.2,12,0.00,,---,0.00,VWS V14.01,2013-05-04 00:06:00,
2013-05-03 18:11:00,58.1,5.8,30.06,NNE,18,13.2,13.2,12,0.00,,---,0.00,VWS V14.01,2013-05-04 00:11:00,
2013-05-03 18:17:00,58.3,5.9,30.06,North,353,15.4,15.4,12,0.00,,---,0.00,VWS V14.01,2013-05-04 00:17:00,
2013-05-03 18:22:00,58.3,5.9,30.06,North,2,15.0,15.0,12,0.00,,---,0.00,VWS V14.01,2013-05-04 00:22:00,
2013-05-03 18:28:00,57.9,5.6,30.06,North,357,15.0,15.0,12,0.00,,---,0.00,VWS V14.01,2013-05-04 00:28:00,
2013-05-03 18:33:00,57.7,5.5,30.06,North,2,12.8,13.2,12,0.00,,---,0.00,VWS V14.01,2013-05-04 00:33:00,
2013-05-03 18:39:00,57.6,5.3,30.06,NNE,18,11.0,12.3,12,0.00,,---,0.00,VWS V14.01,2013-05-04 00:39:00,
2013-05-03 18:45:00,57.4,5.2,30.06,North,9,12.8,13.2,12,0.00,,---,0.00,VWS V14.01,2013-05-04 00:45:00,
2013-05-03 18:50:00,57.2,5.1,30.06,North,357,12.8,12.8,12,0.00,,---,0.00,VWS V14.01,2013-05-04 00:50:00,
2013-05-03 18:56:00,56.8,4.8,30.06,North,8,12.8,12.8,12,0.00,,---,0.00,VWS V14.01,2013-05-04 00:56:00,
2013-05-03 19:01:00,56.8,4.8,30.06,North,10,10.5,10.5,12,0.00,,---,0.00,VWS V14.01,2013-05-04 01:01:00,
2013-05-03 19:07:00,56.5,9.4,30.09,North,2,10.5,11.0,15,0.00,,---,0.00,VWS V14.01,2013-05-04 01:07:00,
2013-05-03 19:13:00,55.9,9.0,30.09,NNE,12,10.5,11.0,15,0.00,,---,0.00,VWS V14.01,2013-05-04 01:13:00,
2013-05-03 19:18:00,55.6,8.7,30.09,North,5,11.0,11.0,15,0.00,,---,0.00,VWS V14.01,2013-05-04 01:18:00,
2013-05-03 19:24:00,54.7,8.0,30.09,NNE,14,10.5,11.0,15,0.00,,---,0.00,VWS V14.01,2013-05-04 01:24:00,
2013-05-03 19:30:00,53.6,7.1,30.09,NNE,22,8.7,8.7,15,0.00,,---,0.00,VWS V14.01,2013-05-04 01:30:00,
2013-05-03 19:35:00,52.7,7.8,30.09,NNE,28,10.5,10.5,16,0.00,,---,0.00,VWS V14.01,2013-05-04 01:35:00,
2013-05-03 19:41:00,51.4,6.8,30.09,NE,35,8.7,8.7,16,0.00,,---,0.00,VWS V14.01,2013-05-04 01:41:00,
2013-05-03 19:46:00,50.4,5.9,30.09,NE,35,8.1,8.3,16,0.00,,---,0.00,VWS V14.01,2013-05-04 01:46:00,
2013-05-03 19:52:00,50.2,5.7,30.12,NE,35,7.6,8.3,16,0.00,,---,0.00,VWS V14.01,2013-05-04 01:52:00,
2013-05-03 19:58:00,48.2,4.1,30.12,NNE,32,8.3,8.3,16,0.00,,---,0.00,VWS V14.01,2013-05-04 01:58:00,
2013-05-03 20:03:00,47.7,5.0,30.12,NNE,32,10.1,10.1,17,0.00,,---,0.00,VWS V14.01,2013-05-04 02:03:00,
2013-05-03 20:09:00,47.7,5.0,30.09,NNE,33,9.2,9.6,17,0.00,,---,0.00,VWS V14.01,2013-05-04 02:09:00,
2013-05-03 20:14:00,47.1,4.6,30.09,NE,36,8.1,8.7,17,0.00,,---,0.00,VWS V14.01,2013-05-04 02:14:00,
2013-05-03 20:20:00,46.6,4.1,30.09,NE,37,8.3,8.7,17,0.00,,---,0.00,VWS V14.01,2013-05-04 02:20:00,
2013-05-03 20:26:00,46.0,3.7,30.09,NE,37,8.3,8.3,17,0.00,,---,0.00,VWS V14.01,2013-05-04 02:26:00,
2013-05-03 20:31:00,45.7,3.4,30.12,NE,34,8.7,8.7,17,0.00,,---,0.00,VWS V14.01,2013-05-04 02:31:00,
2013-05-03 20:37:00,45.1,2.9,30.12,NE,34,8.7,8.7,17,0.00,,---,0.00,VWS V14.01,2013-05-04 02:37:00,
2013-05-03 20:42:00,44.6,2.5,30.12,NE,35,9.6,9.6,17,0.00,,---,0.00,VWS V14.01,2013-05-04 02:42:00,
2013-05-03 20:48:00,44.2,3.4,30.12,NNE,33,8.7,8.7,18,0.00,,---,0.00,VWS V14.01,2013-05-04 02:48:00,
2013-05-03 20:53:00,44.1,3.3,30.12,NE,36,10.1,10.1,18,0.00,,---,0.00,VWS V14.01,2013-05-04 02:53:00,
2013-05-03 20:58:00,43.9,3.1,30.12,NE,34,10.5,10.5,18,0.00,,---,0.00,VWS V14.01,2013-05-04 02:58:00,
2013-05-03 21:03:00,43.7,3.0,30.12,NNE,32,10.1,10.1,18,0.00,,---,0.00,VWS V14.01,2013-05-04 03:03:00,
2013-05-03 21:09:00,43.5,2.8,30.12,NNE,33,11.0,11.0,18,0.00,,---,0.00,VWS V14.01,2013-05-04 03:09:00,
2013-05-03 21:14:00,43.5,2.8,30.12,NE,35,11.0,11.0,18,0.00,,---,0.00,VWS V14.01,2013-05-04 03:14:00,
2013-05-03 21:20:00,43.3,2.7,30.12,NNE,32,10.1,11.0,18,0.00,,---,0.00,VWS V14.01,2013-05-04 03:20:00,
2013-05-03 21:26:00,43.2,2.5,30.12,NE,34,9.2,10.1,18,0.00,,---,0.00,VWS V14.01,2013-05-04 03:26:00,
2013-05-03 21:32:00,42.6,5.4,30.12,NNE,30,10.5,11.0,21,0.00,,---,0.00,VWS V14.01,2013-05-04 03:32:00,
2013-05-03 21:37:00,42.3,5.1,30.12,NNE,31,10.5,11.0,21,0.00,,---,0.00,VWS V14.01,2013-05-04 03:37:00,
2013-05-03 21:43:00,42.3,5.1,30.12,NNE,31,11.0,11.9,21,0.00,,---,0.00,VWS V14.01,2013-05-04 03:43:00,
2013-05-03 21:48:00,42.3,5.1,30.15,NNE,33,10.1,10.5,21,0.00,,---,0.00,VWS V14.01,2013-05-04 03:48:00,
2013-05-03 21:54:00,42.1,5.0,30.12,NNE,23,11.0,11.0,21,0.00,,---,0.00,VWS V14.01,2013-05-04 03:54:00,
2013-05-03 21:59:00,41.7,4.7,30.12,NNE,30,12.8,12.8,21,0.00,,---,0.00,VWS V14.01,2013-05-04 03:59:00,
2013-05-03 22:01:00,41.5,4.5,30.12,NNE,24,11.4,12.3,21,0.00,,---,0.00,VWS V14.01,2013-05-04 04:01:00,
2013-05-03 22:02:00,41.5,4.5,30.12,NNE,24,11.4,11.4,21,0.00,,---,0.00,VWS V14.01,2013-05-04 04:02:00,
2013-05-03 22:03:00,41.5,4.5,30.12,NNE,27,11.4,11.4,21,0.00,,---,0.00,VWS V14.01,2013-05-04 04:03:00,
2013-05-03 22:04:00,41.5,4.5,30.12,NNE,31,10.5,11.4,21,0.00,,---,0.00,VWS V14.01,2013-05-04 04:04:00,
2013-05-03 22:09:00,40.8,3.9,30.15,NNE,28,11.9,11.9,21,0.00,,---,0.00,VWS V14.01,2013-05-04 04:09:00,
2013-05-03 22:12:00,40.6,3.8,30.15,NNE,23,10.1,10.1,21,0.00,,---,0.00,VWS V14.01,2013-05-04 04:12:00,
2013-05-03 22:18:00,40.5,3.6,30.15,NNE,21,10.5,12.8,21,0.00,,---,0.00,VWS V14.01,2013-05-04 04:18:00,
2013-05-03 22:24:00,40.5,3.6,30.12,NNE,26,11.4,11.4,21,0.00,,---,0.00,VWS V14.01,2013-05-04 04:24:00,
2013-05-03 22:30:00,40.5,3.6,30.12,NNE,17,11.9,12.8,21,0.00,,---,0.00,VWS V14.01,2013-05-04 04:30:00,
2013-05-03 22:36:00,40.5,3.6,30.12,NNE,19,11.9,12.3,21,0.00,,---,0.00,VWS V14.01,2013-05-04 04:36:00,
2013-05-03 22:41:00,40.5,3.6,30.12,NNE,30,10.5,11.9,21,0.00,,---,0.00,VWS V14.01,2013-05-04 04:41:00,
2013-05-03 22:47:00,39.9,5.1,30.12,North,9,11.9,11.9,23,0.00,,---,0.00,VWS V14.01,2013-05-04 04:47:00,
2013-05-03 22:53:00,39.4,4.7,30.12,NNE,25,12.8,13.2,23,0.00,,---,0.00,VWS V14.01,2013-05-04 04:53:00,
2013-05-03 22:58:00,39.4,4.7,30.12,NNE,12,12.8,12.8,23,0.00,,---,0.00,VWS V14.01,2013-05-04 04:58:00,
2013-05-03 23:03:00,39.2,4.5,30.15,NNE,30,11.4,11.4,23,0.00,,---,0.00,VWS V14.01,2013-05-04 05:03:00,
2013-05-03 23:08:00,39.0,5.3,30.15,North,9,12.8,12.8,24,0.00,,---,0.00,VWS V14.01,2013-05-04 05:08:00,
2013-05-03 23:14:00,38.7,5.0,30.15,NNE,20,13.2,13.2,24,0.00,,---,0.00,VWS V14.01,2013-05-04 05:14:00,
2013-05-03 23:19:00,38.5,4.8,30.12,NE,35,11.0,11.0,24,0.00,,---,0.00,VWS V14.01,2013-05-04 05:19:00,
2013-05-03 23:25:00,38.1,6.3,30.15,NNE,28,11.0,12.3,26,0.00,,---,0.00,VWS V14.01,2013-05-04 05:25:00,
2013-05-03 23:30:00,38.1,6.3,30.15,NNE,18,11.9,11.9,26,0.00,,---,0.00,VWS V14.01,2013-05-04 05:30:00,
2013-05-03 23:36:00,38.1,6.3,30.15,North,11,10.5,12.3,26,0.00,,---,0.00,VWS V14.01,2013-05-04 05:36:00,
2013-05-03 23:42:00,38.3,6.4,30.15,NNE,17,10.5,11.0,26,0.00,,---,0.00,VWS V14.01,2013-05-04 05:42:00,
2013-05-03 23:47:00,38.1,6.3,30.15,NNE,15,10.1,10.1,26,0.00,,---,0.00,VWS V14.01,2013-05-04 05:47:00,
2013-05-03 23:53:00,37.9,6.1,30.12,NNE,21,9.2,9.2,26,0.00,,---,0.00,VWS V14.01,2013-05-04 05:53:00,
2013-05-03 23:58:00,37.8,6.0,30.12,NNE,33,12.3,12.3,26,0.00,,---,0.00,VWS V14.01,2013-05-04 05:58:00,